Content
SEND FEEDBACK

Daily
Averages
Monthly
Summary
United States of America

EUREKA SPRINGS, ARKANSAS


Home > North America > United States > Arkansas
Elevation: 1417 feet     Latitude: 36 25N     Longitude: 093 46W

WEATHER
 
SELECT A DAY
Number of Records: 358,490;   Date Range: 1/1/95 - 11/27/14
 
SHARE

PRINT THIS DATA

[ ← Previous Day ]
WEATHER ALMANAC - JANUARY 31, 2013
[ Next Day → ]
[ °C ]   °F
Weather ElementAverageHighLow
Temperature29.5 °F46 °F (12:57 pm)18 °F (11:57 pm)
Dewpoint20.9 °F27 °F (12:57 pm)10.9 °F (10:57 pm)
Humidity71.7 %88 % (1:57 am)47 % (12:57 pm)
Barometer30.22 in30.45 in (10:57 pm)30.05 in (4:57 am)
Wind Speed9.6 mph16.1 mph (12:57 pm)
Wind Gust24.2 mph (1:57 pm)
Weather ElementAverage
Visibility10 mi
Wind DirectionWNW (288.4 °)

Weather ElementTotal
Precipitation---
Heating Degree Days33 (Base 65)
Averaged from 25 records on January 31, 2013
WEATHER CONDITIONS BREAKOUT
WIND DIRECTION BREAKOUT
WEATHER BY HOUR - JANUARY 31, 2013
[ °C ]   °F
Local TimeTemperatureDewpointHumidityBarometerVisibilityWind DirectionWind SpeedGust SpeedPrecipitationEventsConditions
1:57 AM23.0 °F19.9 °F88 %30.08 in10.0 miSSW (210°)6.9 mphClear
3:57 AM23.0 °F19.9 °F88 %30.06 in10.0 miSSW (210°)5.8 mphClear
4:57 AM23.0 °F19.9 °F88 %30.05 in10.0 miSouth (180°)5.8 mphClear
5:57 AM23.0 °F19.9 °F88 %30.05 in10.0 miSouth (180°)6.9 mphClear
6:57 AM27.0 °F21.9 °F81 %30.06 in10.0 miSSW (210°)10.4 mphClear
7:57 AM30.0 °F23.0 °F75 %30.06 in10.0 miSSW (210°)13.8 mphClear
8:57 AM34.0 °F23.0 °F64 %30.09 in10.0 miSSW (210°)11.5 mphClear
9:57 AM37.9 °F25.0 °F60 %30.12 in10.0 miWest (260°)8.1 mphClear
10:57 AM43.0 °F25.0 °F49 %30.14 in10.0 miWest (280°)12.7 mphMostly Cloudy
11:57 AM44.1 °F26.1 °F49 %30.14 in10.0 miWest (280°)13.8 mphPartly Cloudy
12:57 PM46.0 °F27.0 °F47 %30.13 in10.0 miWNW (300°)16.1 mphClear
1:57 PM43.0 °F26.1 °F51 %30.15 in10.0 miNNW (330°)13.8 mph24.2 mphPartly Cloudy
2:57 PM41.0 °F25.0 °F53 %30.18 in10.0 miNW (310°)13.8 mphMostly Cloudy
4:57 PM30.0 °F24.1 °F79 %30.29 in10.0 miNNW (340°)12.7 mph19.6 mphOvercast
5:01 PM30.2 °F24.8 °F80 %30.25 in9.0 miNorth (350°)6.9 mph17.3 mphOvercast
5:57 PM28.0 °F23.0 °F81 %30.32 in10.0 miNNW (330°)11.5 mph0.00 inOvercast
6:02 PM28.4 °F21.2 °F74 %30.28 in10.0 miNNW (330°)11.5 mphOvercast
6:40 PM26.6 °F21.2 °F80 %30.30 in10.0 miNW (320°)8.1 mphOvercast
6:57 PM27.0 °F21.9 °F81 %30.36 in10.0 miNW (310°)9.2 mphOvercast
7:37 PM24.8 °F17.6 °F74 %30.34 in10.0 miNorth (350°)9.2 mphScattered Clouds
7:57 PM24.1 °F16.0 °F71 %30.40 in10.0 miNNW (330°)10.4 mphClear
8:57 PM21.9 °F15.1 °F75 %30.43 in10.0 miNorth (350°)5.8 mphClear
9:57 PM21.0 °F14.0 °F74 %30.44 in10.0 miNorth (350°)4.6 mphClear
10:57 PM19.9 °F10.9 °F68 %30.45 in10.0 miNNW (330°)5.8 mphClear
11:57 PM18.0 °F10.9 °F74 %30.45 in10.0 miNorth (350°)5.8 mphClear
Hourly data recorded from KROG, located miles away from Eureka Springs, Arkansas







STORIES FROM OUR PARTNERS